Weather History for Santa Ynez, CA

Change the Weather History Date:

Saturday, April 5, 2014

  Actual Average (KSBA) Record (KSBA)
Temperature  
Mean Temperature 56 °F 56 °F  
Max Temperature 68 °F 67 °F 96 °F (1989)
Min Temperature 44 °F 47 °F 37 °F (1976)
Degree Days  
Heating Degree Days 9 9  
Month to date heating degree days 45  
Since 1 July heating degree days 1942  
Cooling Degree Days 0 0  
Month to date cooling degree days 0  
Year to date cooling degree days 2  
Growing Degree Days 6 (Base 50)    
Moisture  
Dew Point 40 °F    
Average Humidity 62    
Maximum Humidity 93    
Minimum Humidity 30    
Precipitation  
Precipitation 0.00 in 0.05 in 0.95 in (1969)
Month to date precipitation 0.25  
Year to date precipitation 10.89  
Since 1 July precipitation 16.60  
Sea Level Pressure  
Sea Level Pressure 30.04 in    
Wind  
Wind Speed 7 mph (NW)    
Max Wind Speed 18 mph    
Max Gust Speed 25 mph    
Visibility 10 miles    
Events      
T = Trace of Precipitation, MM = Missing Value Source: NWS Daily Summary

Daily Weather History Graph

Daily Weather History Graph

Search for Another Location

Airport:

Trip Planner

Search our weather history database for the weather conditions in past years. The results will help you decide how hot, cold, wet, or windy it might be!

Date:

Astronomy

Apr. 05, 2014 Rise Set
Actual Time 6:41 AM PDT 7:24 PM PDT
Civil Twilight 6:16 AM PDT 7:50 PM PDT
Nautical Twilight 5:46 AM PDT 8:20 PM PDT
Astronomical Twilight 5:15 AM PDT 8:51 PM PDT
Moon 11:02 AM PDT (4/5) 12:30 AM PDT (4/5)
Length of Visible Light 13h 33m
Length of Day
12h 42m
Waxing Crescent, 35% of the Moon is Illuminated
Apr 5
Waxing Crescent
Apr 7
First Quarter
Apr 15
Full
Apr 22
Last Quarter
Apr 28
New

Hourly Weather History & Observations

Time (PDT) Temp. Windchill Dew Point Humidity Pressure Visibility Wind Dir Wind Speed Gust Speed Precip Events Conditions
12:15 AM 46.4 °F 43.5 °F 42.8 °F 87% 30.02 in 10.0 mi NW 5.8 mph - N/A   Clear
12:35 AM 46.4 °F 43.5 °F 42.8 °F 87% 30.02 in 10.0 mi NW 5.8 mph - N/A   Clear
12:55 AM 46.4 °F 43.5 °F 42.8 °F 87% 30.02 in 10.0 mi NW 5.8 mph - N/A   Clear
1:15 AM 46.4 °F 44.3 °F 42.8 °F 87% 30.02 in 10.0 mi West 4.6 mph - N/A   Clear
1:35 AM 46.4 °F 42.9 °F 42.8 °F 87% 30.02 in 10.0 mi NW 6.9 mph - N/A   Clear
1:55 AM 46.4 °F 44.3 °F 42.8 °F 87% 30.01 in 10.0 mi NW 4.6 mph - N/A   Clear
2:15 AM 44.6 °F 42.2 °F 42.8 °F 93% 30.01 in 10.0 mi West 4.6 mph - N/A   Scattered Clouds
2:35 AM 46.4 °F - 42.8 °F 87% 30.00 in 10.0 mi Calm Calm - N/A   Mostly Cloudy
2:55 AM 44.6 °F 41.4 °F 42.8 °F 93% 30.00 in 10.0 mi SW 5.8 mph - N/A   Scattered Clouds
3:15 AM 44.6 °F 43.1 °F 41.0 °F 87% 30.01 in 10.0 mi WSW 3.5 mph - N/A   Scattered Clouds
3:35 AM 44.6 °F 43.1 °F 41.0 °F 87% 30.00 in 10.0 mi WSW 3.5 mph - N/A   Clear
3:55 AM 44.6 °F 43.1 °F 41.0 °F 87% 30.00 in 10.0 mi SW 3.5 mph - N/A   Mostly Cloudy
4:15 AM 46.4 °F 43.5 °F 41.0 °F 81% 30.00 in 10.0 mi West 5.8 mph - N/A   Mostly Cloudy
4:35 AM 44.6 °F 42.2 °F 41.0 °F 87% 29.99 in 10.0 mi West 4.6 mph - N/A   Clear
4:55 AM 44.6 °F 40.7 °F 41.0 °F 87% 29.99 in 10.0 mi West 6.9 mph - N/A   Clear
5:15 AM 44.6 °F 43.1 °F 41.0 °F 87% 29.99 in 10.0 mi WNW 3.5 mph - N/A   Clear
5:35 AM 44.6 °F 43.1 °F 39.2 °F 81% 30.00 in 10.0 mi WNW 3.5 mph - N/A   Clear
5:55 AM 44.6 °F 40.7 °F 39.2 °F 81% 30.00 in 10.0 mi NW 6.9 mph - N/A   Clear
6:15 AM 44.6 °F - 39.2 °F 81% 30.00 in 10.0 mi Calm Calm - N/A   Clear
6:35 AM 44.6 °F 43.1 °F 39.2 °F 81% 30.01 in 10.0 mi NNW 3.5 mph - N/A   Clear
6:55 AM 44.6 °F - 39.2 °F 81% 30.02 in 10.0 mi Calm Calm - N/A   Clear
7:15 AM 44.6 °F - 39.2 °F 81% 30.03 in 10.0 mi Calm Calm - N/A   Clear
7:35 AM 44.6 °F - 41.0 °F 87% 30.04 in 10.0 mi Calm Calm - N/A   Clear
7:55 AM 46.4 °F - 41.0 °F 81% 30.04 in 10.0 mi Calm Calm - N/A   Clear
8:15 AM 46.4 °F 45.2 °F 41.0 °F 81% 30.05 in 10.0 mi SW 3.5 mph - N/A   Clear
8:35 AM 50.0 °F - 41.0 °F 71% 30.05 in 10.0 mi North 5.8 mph - N/A   Clear
8:55 AM 51.8 °F - 41.0 °F 67% 30.05 in 10.0 mi NNW 11.5 mph - N/A   Clear
9:15 AM 53.6 °F - 42.8 °F 67% 30.05 in 10.0 mi NNW 11.5 mph - N/A   Clear
9:35 AM 55.4 °F - 42.8 °F 63% 30.06 in 10.0 mi NNW 9.2 mph - N/A   Clear
9:55 AM 55.4 °F - 41.0 °F 58% 30.06 in 10.0 mi North 12.7 mph - N/A   Clear
10:15 AM 59.0 °F - 35.6 °F 42% 30.06 in 10.0 mi North 15.0 mph 20.7 mph N/A   Clear
10:35 AM 59.0 °F - 35.6 °F 42% 30.06 in 10.0 mi North 17.3 mph 24.2 mph N/A   Clear
10:55 AM 60.8 °F - 35.6 °F 39% 30.06 in 10.0 mi NNE 15.0 mph 24.2 mph N/A   Clear
11:15 AM 60.8 °F - 35.6 °F 39% 30.06 in 10.0 mi North 12.7 mph 21.9 mph N/A   Clear
11:35 AM 62.6 °F - 35.6 °F 37% 30.06 in 10.0 mi North 12.7 mph 20.7 mph N/A   Clear
11:55 AM 62.6 °F - 35.6 °F 37% 30.06 in 10.0 mi NE 10.4 mph 16.1 mph N/A   Clear
12:15 PM 62.6 °F - 35.6 °F 37% 30.05 in 10.0 mi NE 11.5 mph 16.1 mph N/A   Clear
12:35 PM 64.4 °F - 35.6 °F 34% 30.05 in 10.0 mi North 8.1 mph 18.4 mph N/A   Clear
12:55 PM 64.4 °F - 35.6 °F 34% 30.05 in 10.0 mi NNE 13.8 mph 19.6 mph N/A   Clear
1:15 PM 64.4 °F - 35.6 °F 34% 30.04 in 10.0 mi NNE 11.5 mph 19.6 mph N/A   Clear
1:35 PM 64.4 °F - 35.6 °F 34% 30.03 in 10.0 mi North 11.5 mph 16.1 mph N/A   Clear
1:55 PM 66.2 °F - 35.6 °F 32% 30.03 in 10.0 mi NE 6.9 mph 16.1 mph N/A   Clear
2:15 PM 68.0 °F - 35.6 °F 30% 30.03 in 10.0 mi North 10.4 mph - N/A   Clear
2:35 PM 68.0 °F - 35.6 °F 30% 30.02 in 10.0 mi NNW 12.7 mph - N/A   Clear
2:55 PM 68.0 °F - 35.6 °F 30% 30.02 in 10.0 mi NNW 11.5 mph 19.6 mph N/A   Clear
3:15 PM 68.0 °F - 35.6 °F 30% 30.01 in 10.0 mi North 13.8 mph 23.0 mph N/A   Clear
3:35 PM 68.0 °F - 41.0 °F 37% 30.01 in 10.0 mi NW 18.4 mph 25.3 mph N/A   Clear
3:55 PM 68.0 °F - 41.0 °F 37% 30.02 in 10.0 mi North 13.8 mph 23.0 mph N/A   Clear
4:15 PM 68.0 °F - 37.4 °F 33% 30.02 in 10.0 mi NNW 10.4 mph 21.9 mph N/A   Clear
4:35 PM 68.0 °F - 35.6 °F 30% 30.02 in 10.0 mi North 9.2 mph - N/A   Clear
4:55 PM 68.0 °F - 35.6 °F 30% 30.02 in 10.0 mi North 16.1 mph 20.7 mph N/A   Clear
5:15 PM 68.0 °F - 35.6 °F 30% 30.02 in 10.0 mi NNW 12.7 mph 19.6 mph N/A   Clear
5:35 PM 68.0 °F - 35.6 °F 30% 30.03 in 10.0 mi North 15.0 mph 20.7 mph N/A   Clear
5:55 PM 66.2 °F - 33.8 °F 30% 30.03 in 10.0 mi North 13.8 mph 18.4 mph N/A   Clear
6:15 PM 64.4 °F - 35.6 °F 34% 30.03 in 10.0 mi North 16.1 mph 20.7 mph N/A   Clear
6:35 PM 64.4 °F - 35.6 °F 34% 30.05 in 10.0 mi North 9.2 mph - N/A   Clear
6:55 PM 64.4 °F - 33.8 °F 32% 30.05 in 10.0 mi NNW 9.2 mph - N/A   Clear
7:15 PM 59.0 °F - 44.6 °F 59% 30.06 in 10.0 mi WNW 9.2 mph - N/A   Clear
7:35 PM 59.0 °F - 44.6 °F 59% 30.07 in 10.0 mi WNW 9.2 mph - N/A   Clear
7:55 PM 55.4 °F - 44.6 °F 67% 30.08 in 10.0 mi WNW 5.8 mph - N/A   Clear
8:15 PM 55.4 °F - 44.6 °F 67% 30.09 in 10.0 mi WNW 4.6 mph - N/A   Clear
8:35 PM 55.4 °F - 44.6 °F 67% 30.10 in 10.0 mi NNW 8.1 mph - N/A   Clear
8:55 PM 55.4 °F - 44.6 °F 67% 30.11 in 10.0 mi NNW 6.9 mph - N/A   Clear
9:15 PM 53.6 °F - 44.6 °F 72% 30.12 in 10.0 mi NW 5.8 mph - N/A   Clear
9:35 PM 51.8 °F - 44.6 °F 76% 30.13 in 10.0 mi Calm Calm - N/A   Clear
9:55 PM 51.8 °F - 44.6 °F 76% 30.13 in 10.0 mi SW 3.5 mph - N/A   Clear
10:15 PM 51.8 °F - 44.6 °F 76% 30.13 in 10.0 mi NW 4.6 mph - N/A   Clear
10:35 PM 50.0 °F - 44.6 °F 82% 30.12 in 10.0 mi WNW 4.6 mph - N/A   Clear
10:55 PM 51.8 °F - 44.6 °F 76% 30.13 in 10.0 mi NW 6.9 mph - N/A   Clear
11:15 PM 50.0 °F - 44.6 °F 82% 30.13 in 10.0 mi WSW 5.8 mph - N/A   Clear
11:35 PM 48.2 °F - 44.6 °F 87% 30.13 in 10.0 mi West 5.8 mph - N/A   Clear
11:55 PM 48.2 °F - 42.8 °F 82% 30.13 in 10.0 mi SSW 6.9 mph - N/A   Clear